CFG4174 EDDH-EDDF

Flight info

Callsign CFG4174
Flight time N/A
Altitude 21000
Route IDEKO7G/33 IDEKO N850 NIE/N0404F230 N850 PIROT/N0381F190 T152 KERAX KERAX5A
Aircraft A321/M-SDE3FGHIRWY/LB1

Departure

Time 2026-04-23 18:27
Airport Hamburg Helmut Schmidt Airport (EDDH)

Arrival

Time N/A
Airport Frankfurt Main Airport (EDDF)
Time Latitude Longitude Altitude Speed Heading
2026-04-23 17:57 53.62740 10.00308 49 ft 0 kts 63°
2026-04-23 18:06 53.62739 10.00308 48 ft 0 kts 63°
2026-04-23 18:10 53.62739 10.00307 48 ft 0 kts 63°
2026-04-23 18:17 53.62730 10.00273 47 ft 2 kts 64°
2026-04-23 18:17 53.62723 10.00248 44 ft 2 kts 69°
2026-04-23 18:17 53.62718 10.00222 45 ft 2 kts 78°
2026-04-23 18:17 53.62715 10.00194 47 ft 2 kts 111°
2026-04-23 18:18 53.62723 10.00176 42 ft 1 kts 154°
2026-04-23 18:18 53.62724 10.00175 42 ft 0 kts 151°
2026-04-23 18:18 53.62725 10.00175 42 ft 0 kts 151°
2026-04-23 18:19 53.62724 10.00175 42 ft 0 kts 151°
2026-04-23 18:20 53.62723 10.00177 45 ft 4 kts 152°
2026-04-23 18:20 53.62673 10.00221 48 ft 9 kts 153°
2026-04-23 18:20 53.62626 10.00261 48 ft 6 kts 153°
2026-04-23 18:20 53.62592 10.00257 48 ft 4 kts 212°
2026-04-23 18:21 53.62574 10.00216 46 ft 5 kts 242°
2026-04-23 18:21 53.62567 10.00196 47 ft 0 kts 242°
2026-04-23 18:25 53.62566 10.00192 47 ft 3 kts 242°
2026-04-23 18:26 53.62546 10.00128 44 ft 7 kts 243°
2026-04-23 18:26 53.62541 10.00062 47 ft 7 kts 278°
2026-04-23 18:26 53.62584 9.99991 47 ft 9 kts 332°
2026-04-23 18:26 53.62698 9.99891 46 ft 43 kts 333°
2026-04-23 18:27 53.63173 9.99481 47 ft 107 kts 333°
2026-04-23 18:27 53.63981 9.98782 48 ft 152 kts 332°
2026-04-23 18:27 53.64975 9.97966 482 ft 159 kts 329°
2026-04-23 18:27 53.65965 9.97145 1132 ft 157 kts 330°
2026-04-23 18:28 53.66968 9.96285 1455 ft 171 kts 332°
2026-04-23 18:28 53.68076 9.95305 1727 ft 184 kts 332°
2026-04-23 18:28 53.69139 9.94391 2207 ft 186 kts 333°
2026-04-23 18:28 53.70252 9.93398 2680 ft 190 kts 326°
2026-04-23 18:29 53.71084 9.91777 3235 ft 197 kts 301°
2026-04-23 18:29 53.71399 9.89447 3639 ft 219 kts 274°
2026-04-23 18:29 53.71008 9.86795 3917 ft 243 kts 257°
2026-04-23 18:29 53.70437 9.83982 4286 ft 260 kts 257°
2026-04-23 18:30 53.69844 9.81056 4977 ft 265 kts 257°
2026-04-23 18:30 53.69449 9.79098 5470 ft 267 kts 257°
2026-04-23 18:30 53.68912 9.76428 6125 ft 270 kts 257°
2026-04-23 18:30 53.68306 9.73404 6833 ft 274 kts 258°
2026-04-23 18:31 53.67700 9.70347 7536 ft 277 kts 257°
2026-04-23 18:31 53.67089 9.67239 8223 ft 280 kts 257°
2026-04-23 18:31 53.66474 9.64105 8907 ft 284 kts 257°
2026-04-23 18:31 53.65586 9.61081 9578 ft 295 kts 238°
2026-04-23 18:32 53.64072 9.58668 10235 ft 307 kts 215°
2026-04-23 18:32 53.62071 9.57280 10718 ft 322 kts 194°
2026-04-23 18:32 53.59774 9.56735 10832 ft 344 kts 188°
2026-04-23 18:32 53.57322 9.56267 10962 ft 365 kts 187°
2026-04-23 18:33 53.55621 9.55953 11042 ft 378 kts 187°
2026-04-23 18:33 53.52096 9.55307 11595 ft 389 kts 187°
2026-04-23 18:33 53.49395 9.54802 12175 ft 392 kts 187°
2026-04-23 18:33 53.47557 9.54451 12586 ft 395 kts 187°
2026-04-23 18:34 53.43930 9.53742 13386 ft 399 kts 188°
2026-04-23 18:34 53.41164 9.53189 13982 ft 402 kts 188°
2026-04-23 18:34 53.38375 9.52635 14516 ft 405 kts 187°
2026-04-23 18:34 53.36498 9.52264 14886 ft 407 kts 187°
2026-04-23 18:35 53.33644 9.51703 15435 ft 409 kts 187°
2026-04-23 18:35 53.30833 9.51152 15958 ft 411 kts 187°
2026-04-23 18:35 53.27980 9.50595 16489 ft 413 kts 187°
2026-04-23 18:35 53.25142 9.50041 17016 ft 415 kts 187°
2026-04-23 18:36 53.22285 9.49486 17507 ft 417 kts 187°
2026-04-23 18:36 53.19398 9.48930 17975 ft 420 kts 187°
2026-04-23 18:36 53.16481 9.48371 18473 ft 422 kts 187°
2026-04-23 18:36 53.13513 9.47800 18912 ft 425 kts 187°
2026-04-23 18:37 53.10581 9.47227 19377 ft 426 kts 187°
2026-04-23 18:37 53.07666 9.46650 19758 ft 429 kts 187°
2026-04-23 18:37 53.04692 9.46062 20125 ft 432 kts 187°
2026-04-23 18:37 53.01699 9.45477 20557 ft 433 kts 187°
2026-04-23 18:38 52.98693 9.44895 20969 ft 435 kts 187°
2026-04-23 18:38 52.95677 9.44289 21222 ft 437 kts 188°
2026-04-23 18:38 52.92644 9.43651 21284 ft 444 kts 188°
2026-04-23 18:38 52.89558 9.42983 21287 ft 448 kts 188°
2026-04-23 18:39 52.86465 9.42303 21278 ft 448 kts 188°
2026-04-23 18:39 52.83381 9.41631 21281 ft 447 kts 188°
2026-04-23 18:39 52.80291 9.40967 21284 ft 448 kts 188°
2026-04-23 18:39 52.77193 9.40312 21283 ft 449 kts 188°
2026-04-23 18:40 52.74094 9.39659 21281 ft 449 kts 188°
2026-04-23 18:40 52.71006 9.39005 21280 ft 447 kts 188°
2026-04-23 18:40 52.67916 9.38349 21276 ft 448 kts 188°
2026-04-23 18:40 52.64824 9.37690 21281 ft 450 kts 188°
2026-04-23 18:41 52.61719 9.37024 21290 ft 450 kts 188°
2026-04-23 18:41 52.58622 9.36291 21293 ft 449 kts 189°
2026-04-23 18:41 52.55532 9.35490 21299 ft 449 kts 189°
2026-04-23 18:41 52.52448 9.34648 21295 ft 449 kts 190°
2026-04-23 18:42 52.49370 9.33796 21289 ft 449 kts 190°
2026-04-23 18:42 52.46291 9.32951 21292 ft 449 kts 189°
2026-04-23 18:42 52.43213 9.32124 21304 ft 448 kts 189°
2026-04-23 18:42 52.40133 9.31313 21297 ft 448 kts 189°
2026-04-23 18:43 52.37053 9.30513 21290 ft 448 kts 189°
2026-04-23 18:43 52.33979 9.29723 21291 ft 448 kts 189°
2026-04-23 18:43 52.30899 9.28931 21304 ft 448 kts 189°
2026-04-23 18:43 52.27821 9.28138 21298 ft 447 kts 189°
2026-04-23 18:44 52.24783 9.27353 21286 ft 448 kts 189°
2026-04-23 18:44 52.21661 9.26571 21290 ft 448 kts 188°
2026-04-23 18:44 52.18578 9.25920 21296 ft 448 kts 187°
2026-04-23 18:44 52.15521 9.25370 21301 ft 447 kts 186°
2026-04-23 18:45 52.12423 9.24864 21299 ft 447 kts 185°
2026-04-23 18:45 52.09325 9.24367 21296 ft 447 kts 185°
2026-04-23 18:45 52.06235 9.23867 21295 ft 447 kts 184°
2026-04-23 18:45 52.03128 9.23807 21301 ft 446 kts 178°